User: anonymous   Login
Location: Unspecified
(0.0000°N, 0.0000°E)
Time: 00:21:32
(UTC+00:00)
Language:

TATIANA - Orbit

View from above orbital plane
View from above orbital plane
View from above satellite
View from above satellite

Ground track
Ground track

The orbit data is extracted from the following two-line orbital elements,

1 28523U 05002C   17231.75429054  .00000036  00000-0  17052-4 0  9995
2 28523  82.9522 322.5412 0038636 164.3902 195.8462 13.87435179636952
Epoch (UTC): 19 August 2017 18:06:10
Eccentricity: 0.0038636
inclination: 82.9522°
perigee height: 909 km
apogee height: 966 km
right ascension of ascending node: 322.5412°
argument of perigee: 164.3902°
revolutions per day: 13.87435179
mean anomaly at epoch: 195.8462°
orbit number at epoch: 63695

The dashed part of the orbit path shows where the satellite is in the earth's shadow,  

DLR